Location: Jackson Park
(37.2862°N, 79.9123°W)
Time: 22:12:59
(UTC+00:00)

Transit 4A - Pass Details

Date: 11 May 2026
Orbit: 861 x 980 km, 66.8° (Epoch: 5 June)

Event Time Altitude Azimuth Distance (km) Brightness Sun altitude
Rises 15:01:35 0° 239° (WSW) 3,534 10.7 54.8°
Reaches altitude 10° 15:04:25 10° 250° (WSW) 2,616 10.1 55.3°
Maximum altitude 15:09:37 29° 309° (NW) 1,667 9.3 56.3°
Drops below altitude 10° 15:14:59 10° 8° (N) 2,695 10.3 57.2°
Sets 15:17:58 0° 19° (NNE) 3,660 11.0 57.7°
